GW1554 Weather Reports


time (UTC)temp
C
wind
direction
speed
KPH
gust
KPH
rain 1hr
cm
rain 24hr
cm
rain mn
cm
humidity
%
barometer
mb
20260506194544 15 293 1.6 6.4 0.00 2.26 2.11 64 1010.2
20260506193043 15 304 3.2 11.3 0.00 2.26 2.11 65 1009.9
20260506191550 15 333 0.0 4.8 0.00 2.26 2.11 68 1009.7
20260506190043 15 303 3.2 8.0 0.00 2.26 2.11 66 1009.4
20260506184543 15 319 1.6 8.0 0.00 2.26 2.11 66 1009.2
20260506183048 16 235 1.6 8.0 0.00 2.26 2.11 63 1009.1
20260506181553 16 266 3.2 11.3 0.00 2.26 2.11 61 1009.1
20260506180055 17 224 4.8 19.3 0.00 2.26 2.11 59 1008.9
20260506174540 18 266 3.2 17.7 0.00 2.26 2.11 56 1008.8
20260506173042 18 290 6.4 19.3 0.00 2.26 2.11 53 1008.8
20260506171539 19 281 6.4 17.7 0.00 2.26 2.11 53 1008.7
20260506170038 19 231 11.3 22.5 0.00 2.26 2.11 51 1008.7
20260506164538 20 226 6.4 20.9 0.00 2.26 2.11 51 1008.6
20260506163038 20 231 8.0 25.7 0.00 2.26 2.11 51 1008.6
20260506161536 20 193 3.2 24.1 0.00 2.26 2.11 51 1008.4
20260506160037 20 216 9.7 30.6 0.00 2.26 2.11 51 1008.5
20260506154535 20 229 4.8 37.0 0.00 2.26 2.11 51 1008.4
20260506153034 20 188 9.7 27.4 0.00 2.26 2.11 50 1008.4
20260506151534 20 220 8.0 24.1 0.00 2.26 2.11 50 1008.4
20260506150032 20 221 9.7 25.7 0.00 2.26 2.11 49 1008.4
20260506144536 20 225 8.0 27.4 0.00 2.26 2.11 50 1008.5
20260506143031 20 250 14.5 30.6 0.00 2.26 2.11 51 1008.5
20260506141534 20 229 9.7 29.0 0.00 2.26 2.11 52 1008.6
20260506140027 20 199 8.0 22.5 0.00 2.26 2.11 52 1008.5
20260506134525 20 233 9.7 30.6 0.00 2.26 2.11 57 1008.7
20260506133024 20 152 8.0 20.9 0.00 2.26 2.11 56 1008.9
20260506131525 19 236 9.7 24.1 0.00 2.26 2.11 56 1009.1
20260506130021 20 247 9.7 22.5 0.00 2.26 2.11 56 1009.0
20260506124518 19 264 6.4 16.1 0.00 2.26 2.11 62 1009.2
20260506123016 18 243 4.8 16.1 0.00 2.26 2.11 73 1009.3
20260506121513 17 290 6.4 25.7 0.00 2.26 2.11 73 1009.5
20260506120022 17 63 4.8 20.9 0.00 2.26 2.11 74 1009.7
20260506114512 18 141 8.0 19.3 0.00 2.26 2.11 75 1009.7
20260506113011 18 221 8.0 22.5 0.00 2.26 2.11 70 1009.8
20260506111508 17 245 9.7 17.7 0.00 2.26 2.11 73 1010.1
20260506110006 17 305 3.2 24.1 0.00 2.26 2.11 75 1010.1
20260506104505 17 238 4.8 16.1 0.00 2.26 2.11 75 1010.3
20260506103003 17 255 3.2 17.7 0.00 2.26 2.11 76 1010.2
20260506101502 17 219 4.8 14.5 0.00 2.26 2.11 78 1010.3
20260506100106 16 245 3.2 14.5 0.00 2.26 2.11 78 1010.3
20260506094613 16 251 1.6 11.3 0.00 2.31 2.11 78 1010.4
20260506093059 16 250 6.4 14.5 0.00 2.31 2.11 77 1010.3
20260506091556 16 243 8.0 19.3 0.00 2.31 2.11 78 1010.4
20260506090053 16 299 3.2 12.9 0.00 2.31 2.11 84 1010.2
20260506084556 16 281 4.8 12.9 0.00 2.62 2.11 84 1010.1
20260506083056 15 279 0.0 8.0 0.00 2.62 2.11 88 1010.2
20260506081547 15 210 1.6 9.7 0.00 2.62 2.11 87 1010.2
20260506073044 13 217 0.0 1.6 0.03 2.62 2.11 94 1010.2
20260506071538 13 115 0.0 1.6 0.10 2.62 2.11 95 1010.1
20260506061535 12 354 3.2 6.4 0.00 2.51 2.03 94 1009.9
20260506044539 11 347 6.4 14.5 0.00 2.87 2.03 91 1008.9
20260506043030 11 67 0.0 9.7 0.00 2.87 2.03 93 1009.0
20260506041539 11 271 0.0 12.9 0.03 2.87 2.03 92 1009.2
20260506040032 11 325 8.0 19.3 0.23 2.87 2.03 93 1009.1
20260506034531 11 25 4.8 19.3 0.28 2.87 2.03 95 1009.1
20260506033026 11 347 1.6 4.8 0.43 2.87 2.03 96 1009.4
20260506031525 11 11 3.2 6.4 0.61 2.84 1.98 95 1009.7
20260506030023 11 9 0.0 0.0 0.56 2.64 1.75 94 1010.1
20260506024527 11 52 0.0 6.4 0.61 2.62 1.75 94 1010.0
20260506023024 11 16 8.0 14.5 0.43 2.46 1.57 93 1010.1
20260506021521 11 302 1.6 6.4 0.23 2.26 1.37 91 1010.3
20260506020020 12 5 4.8 20.9 0.05 2.06 1.17 87 1009.6
20260506014520 12 8 14.5 25.7 0.03 2.77 1.14 84 1009.3
20260506013020 12 12 11.3 24.1 0.05 2.77 1.14 85 1009.3
20260506011535 12 15 14.5 27.4 0.05 2.77 1.14 86 1009.3
20260506010015 11 13 0.0 8.0 0.05 2.74 1.12 88 1009.9
20260506004529 12 71 1.6 8.0 0.05 3.15 1.12 85 1010.2
20260506003013 12 340 8.0 20.9 0.00 3.10 1.09 79 1010.1
20260506001510 12 6 14.5 25.7 0.03 3.10 1.09 83 1010.4
20260506000010 12 56 14.5 25.7 0.15 3.10 1.09 84 1010.5
20260505234509 12 356 14.5 27.4 0.41 3.33 1.09 86 1010.7
20260505233004 11 30 16.1 30.6 0.66 3.33 1.09 88 1011.1
20260505231632 11 356 11.3 22.5 0.84 3.30 1.07 88 1011.8
20260505230100 11 34 4.8 11.3 0.91 3.15 0.91 93 1012.2
20260505224552 12 309 3.2 9.7 0.81 2.97 0.69 95 1012.7
20260505223050 12 280 0.0 4.8 0.53 2.69 0.41 95 1012.6
20260505221559 12 297 0.0 4.8 0.33 2.49 0.20 94 1012.9
20260505220056 13 303 1.6 4.8 0.15 2.29 0.00 92 1012.8
20260505214551 13 39 3.2 14.5 0.00 2.13 2.13 91 1012.6
20260505213042 12 350 3.2 9.7 0.00 2.13 2.13 93 1012.8
20260505211542 12 337 0.0 1.6 0.00 2.13 2.13 93 1013.3
20260505210049 12 285 0.0 1.6 0.00 2.13 2.13 92 1013.4
20260505204551 12 128 0.0 4.8 0.00 2.21 2.13 92 1013.1
20260505203041 12 315 0.0 6.4 0.00 2.21 2.13 93 1013.2
20260505201543 12 352 0.0 1.6 0.00 2.21 2.13 94 1012.9
20260505200040 12 325 0.0 8.0 0.00 2.21 2.13 94 1013.0